This demonstration page uses our WeatherBlox Daily Observations layout. Learn more.

Left ArrowRight Arrow

Hourly Observations for November 13, 2021

Temp ( °F °C ) Dew Point ( °F °C ) Humidity (%) Winds ( mph kmh ) Pressure ( in mb ) Visibility ( mi km ) Precip ( " mm )
12:15 am 00:15 Clear 41 5 41 5 100 100 SW 3 6 29.93 1014 10 16 N/A
12:35 am 00:35 Clear 43 6 41 5 93 93 N N/A 29.93 1014 10 16 N/A
12:55 am 00:55 Clear 43 6 41 5 93 93 N N/A 29.92 1013 10 16 N/A
1:15 am 01:15 Clear 41 5 41 5 100 100 N N/A 29.91 1013 10 16 N/A
1:35 am 01:35 Clear 41 5 41 5 100 100 N N/A 29.90 1013 10 16 N/A
1:55 am 01:55 Clear 41 5 41 5 100 100 S 3 6 29.90 1013 10 16 N/A
2:15 am 02:15 Clear 39 4 39 4 100 100 N N/A 29.90 1012 10 16 N/A
2:35 am 02:35 Clear 39 4 39 4 100 100 N N/A 29.90 1012 10 16 N/A
2:55 am 02:55 Clear 43 6 41 5 93 93 ESE 5 7 29.87 1012 10 16 N/A
3:15 am 03:15 Clear 41 5 41 5 100 100 ESE 3 6 29.86 1011 10 16 N/A
3:35 am 03:35 Clear 37 3 37 3 100 100 NNW 5 7 29.87 1011 10 16 N/A
3:55 am 03:55 Clear 41 5 39 4 93 93 N N/A 29.84 1011 10 16 N/A
4:15 am 04:15 Mostly Cloudy 37 3 37 3 100 100 N N/A 29.85 1011 10 16 N/A
4:35 am 04:35 Cloudy 39 4 39 4 100 100 N N/A 29.85 1011 10 16 N/A
4:55 am 04:55 Mostly Cloudy 41 5 41 5 100 100 N N/A 29.84 1011 10 16 N/A
5:15 am 05:15 Mostly Cloudy 41 5 41 5 100 100 N N/A 29.83 1010 10 16 N/A
5:35 am 05:35 Partly Cloudy 41 5 41 5 100 100 ESE 6 9 29.80 1009 10 16 N/A
5:55 am 05:55 Partly Cloudy 41 5 41 5 100 100 N N/A 29.81 1010 10 16 N/A
6:15 am 06:15 Partly Cloudy 43 6 41 5 93 93 N N/A 29.81 1010 10 16 N/A
6:35 am 06:35 Clear 43 6 41 5 93 93 ESE 3 6 29.80 1009 10 16 N/A
6:55 am 06:55 Sunny 41 5 41 5 100 100 N N/A 29.80 1009 10 16 N/A
7:15 am 07:15 Sunny 41 5 41 5 100 100 N N/A 29.81 1010 10 16 N/A
7:35 am 07:35 Partly Cloudy 43 6 41 5 93 93 NW 10 17 29.82 1010 10 16 N/A
7:55 am 07:55 Cloudy 43 6 41 5 93 93 NNW 5 7 29.81 1010 10 16 N/A
8:15 am 08:15 Cloudy 45 7 41 5 87 87 N N/A 29.81 1010 10 16 N/A
8:35 am 08:35 Cloudy 45 7 41 5 87 87 N N/A 29.82 1010 10 16 N/A
8:55 am 08:55 Cloudy 46 8 41 5 82 82 NNE 5 7 29.82 1010 10 16 N/A
9:15 am 09:15 Mostly Cloudy 48 9 41 5 76 76 N N/A 29.83 1010 10 16 N/A
9:35 am 09:35 Mostly Cloudy 48 9 43 6 82 82 N N/A 29.82 1010 10 16 N/A
9:55 am 09:55 Cloudy 50 10 41 5 71 71 N 5 7 29.81 1009 10 16 N/A
10:15 am 10:15 Cloudy 50 10 41 5 71 71 NNW 8 13 29.82 1010 10 16 N/A
10:35 am 10:35 Cloudy 50 10 41 5 71 71 NNW 10 17 29.83 1010 10 16 N/A
10:55 am 10:55 Cloudy with Light Rain 48 9 41 5 76 76 WNW 15 24 29.85 1011 10 16 N/A
11:15 am 11:15 Cloudy with Light Rain 46 8 43 6 87 87 WNW 22 35 29.87 1011 10 16 N/A
11:35 am 11:35 Cloudy with Light Rain 46 8 41 5 82 82 NW 16 26 29.86 1011 10 16 N/A
11:55 am 11:55 Cloudy 46 8 41 5 82 82 NW 10 17 29.86 1011 10 16 N/A
12:15 pm 12:15 Mostly Cloudy 50 10 41 5 71 71 NNW 15 24 29.86 1011 10 16 N/A
12:35 pm 12:35 Mostly Cloudy 50 10 37 3 62 62 WNW 20 31 29.86 1011 10 16 N/A
12:55 pm 12:55 Partly Cloudy 50 10 36 2 58 58 NW 29 46 29.86 1011 10 16 N/A
1:15 pm 13:15 Mostly Cloudy 50 10 34 1 54 54 NW 21 33 29.88 1012 10 16 N/A
1:35 pm 13:35 Mostly Cloudy 46 8 32 undefined 57 57 WNW 22 35 29.88 1012 10 16 N/A
1:55 pm 13:55 Partly Cloudy 50 10 32 undefined 50 50 NW 20 31 29.88 1012 10 16 N/A
2:15 pm 14:15 Sunny 50 10 32 undefined 50 50 NW 13 20 29.90 1012 10 16 N/A
2:35 pm 14:35 Partly Cloudy 50 10 32 undefined 50 50 W 14 22 29.91 1013 10 16 N/A
2:55 pm 14:55 Mostly Cloudy 48 9 32 undefined 54 54 WNW 14 22 29.91 1013 10 16 N/A
3:15 pm 15:15 Partly Cloudy 46 8 32 undefined 57 57 WNW 17 28 29.91 1013 10 16 N/A
3:35 pm 15:35 Sunny 46 8 30 -1 53 53 WNW 21 33 29.92 1013 10 16 N/A
3:55 pm 15:55 Sunny 45 7 30 -1 57 57 WNW 15 24 29.94 1014 10 16 N/A
4:15 pm 16:15 Sunny 45 7 30 -1 57 57 NW 16 26 29.94 1014 10 16 N/A
4:35 pm 16:35 Sunny 45 7 30 -1 57 57 WNW 8 13 29.94 1014 10 16 N/A
4:55 pm 16:55 Sunny 45 7 30 -1 57 57 WNW 14 22 29.95 1014 10 16 N/A
5:15 pm 17:15 Clear 43 6 30 -1 61 61 WNW 16 26 29.95 1014 10 16 N/A
5:35 pm 17:35 Clear 41 5 30 -1 66 66 WNW 15 24 29.97 1015 10 16 N/A
5:55 pm 17:55 Clear 43 6 30 -1 61 61 WNW 16 26 29.98 1015 10 16 N/A
6:15 pm 18:15 Mostly Cloudy 43 6 30 -1 61 61 NW 9 15 29.99 1016 10 16 N/A
6:35 pm 18:35 Mostly Cloudy 43 6 30 -1 61 61 WNW 17 28 30.00 1016 10 16 N/A
6:55 pm 18:55 Partly Cloudy 43 6 30 -1 61 61 NW 15 24 30.00 1016 10 16 N/A
7:15 pm 19:15 Clear 43 6 30 -1 61 61 WNW 16 26 30.00 1016 10 16 N/A
7:35 pm 19:35 Clear 41 5 30 -1 66 66 WNW 16 26 30.01 1016 10 16 N/A
7:55 pm 19:55 Clear 43 6 30 -1 61 61 NW 14 22 30.01 1016 10 16 N/A
8:15 pm 20:15 Clear 41 5 30 -1 66 66 WNW 10 17 30.01 1016 10 16 N/A
8:35 pm 20:35 Clear 41 5 30 -1 66 66 W 7 11 30.02 1017 10 16 N/A
8:55 pm 20:55 Clear 39 4 30 -1 70 70 W 7 11 30.03 1017 10 16 N/A
9:15 pm 21:15 Clear 37 3 30 -1 75 75 W 5 7 30.03 1017 10 16 N/A
9:35 pm 21:35 Clear 36 2 30 -1 81 81 W 8 13 30.04 1017 10 16 N/A
9:55 pm 21:55 Clear 37 3 30 -1 75 75 W 5 7 30.04 1017 10 16 N/A
10:15 pm 22:15 Clear 37 3 30 -1 75 75 WNW 8 13 30.05 1018 10 16 N/A
10:35 pm 22:35 Clear 36 2 30 -1 81 81 W 5 7 30.05 1018 10 16 N/A
10:55 pm 22:55 Clear 36 2 30 -1 81 81 W 6 9 30.05 1018 10 16 N/A
11:15 pm 23:15 Clear 36 2 30 -1 81 81 W 7 11 30.05 1018 10 16 N/A
11:35 pm 23:35 Clear 37 3 30 -1 75 75 WNW 9 15 30.04 1017 10 16 N/A
11:55 pm 23:55 Clear 37 3 30 -1 75 75 W 8 13 30.04 1017 10 16 N/A

Powered by AerisWeather